Theta_e
318 319 320 321 319 318 319 320 318 319 319 318 318 318 318 317 318 319 327 330 332 335 336 333 333 335 336 337 337 337 337 337 336 331 331 331 334 332 331 337 338 337 338 337 335 333 329 327 328
316 319 320 317 319 319 316 318 319 319 319 318 318 318 318 319 319 323 325 329 329 335 335 333 333 333 335 338 339 337 336 336 337 335 335 337 336 335 333 336 337 337 337 335 333 329 326 324 324
319 320 316 316 316 317 317 317 317 318 317 318 318 318 318 318 318 325 329 328 331 334 335 334 334 335 335 339 340 339 338 335 338 338 337 336 335 334 333 336 336 336 335 333 330 324 323 322 320
320 318 313 316 320 317 317 316 317 318 317 317 317 317 316 318 321 324 323 326 332 333 337 335 334 338 337 340 340 339 338 338 336 336 335 336 337 334 333 335 333 333 333 331 328 323 321 318 313
318 312 315 318 319 317 316 318 319 319 318 316 316 317 315 318 321 319 321 324 329 331 338 339 335 339 339 338 339 338 334 336 336 336 336 336 335 331 331 331 331 331 329 329 325 322 317 310 303
315 311 315 317 316 317 317 317 318 317 316 316 316 316 316 318 318 320 323 324 328 329 337 340 339 338 340 341 339 338 334 333 334 335 335 336 335 331 329 328 329 329 328 325 324 318 310 302 300
318 315 317 318 317 316 318 317 316 315 313 316 316 315 315 316 318 319 323 326 329 329 329 336 339 341 339 339 337 337 336 336 333 334 335 337 333 331 328 325 327 328 327 324 322 313 302 300 300
314 313 318 316 316 317 316 316 316 316 314 315 315 313 317 316 318 317 319 324 327 330 329 330 335 338 340 338 339 339 337 337 336 334 335 337 334 331 328 324 326 327 325 322 319 308 301 300 300
315 313 315 318 316 315 315 315 314 314 315 314 314 314 314 318 317 317 319 320 324 328 330 330 331 333 333 338 337 338 338 337 335 334 337 337 333 330 329 327 323 325 323 321 318 311 302 301 300
314 314 317 316 315 316 315 314 313 313 310 310 311 311 314 317 317 317 318 319 321 323 327 331 331 332 333 333 338 338 337 336 334 334 336 335 333 331 330 329 322 321 320 319 317 308 301 300 299
318 315 316 317 317 316 316 314 313 312 313 311 312 312 311 314 313 314 315 317 318 319 321 325 329 332 334 333 331 330 332 332 333 333 334 333 332 330 330 328 323 318 317 317 315 310 302 300 301
318 316 316 316 315 315 316 316 314 314 314 311 310 310 311 310 310 311 312 315 316 317 318 321 324 328 332 334 334 334 333 332 334 331 332 332 331 329 329 327 322 317 315 315 312 307 302 301 301
316 316 316 315 313 312 313 313 314 313 312 310 310 310 309 309 310 312 312 315 315 316 317 318 323 325 327 332 334 334 334 334 333 332 330 331 330 329 328 326 322 317 314 314 312 307 303 300 301
314 313 313 312 312 312 313 312 314 312 310 309 309 308 307 307 307 307 308 307 309 311 314 316 319 324 326 329 331 333 333 333 332 332 332 330 330 329 327 326 322 318 315 313 313 307 304 300 300
313 313 311 312 312 312 311 313 313 311 309 309 309 308 308 306 305 304 305 304 306 307 309 313 315 320 326 327 328 331 332 332 331 331 331 330 328 328 328 326 322 319 315 313 312 309 305 300 299
314 312 313 313 313 313 311 312 312 310 309 310 310 307 305 304 303 303 302 302 304 306 307 309 313 317 324 326 326 327 329 330 330 330 330 329 329 329 329 325 321 318 314 314 313 310 307 301 299
312 312 313 314 313 312 312 311 311 310 311 310 307 306 305 303 302 301 301 300 301 302 304 307 309 313 318 325 325 325 326 328 328 328 329 329 328 329 327 325 322 316 314 315 313 310 307 300 299
313 314 314 314 314 313 313 310 309 310 310 311 305 304 304 303 301 300 300 299 299 300 302 304 307 309 312 316 320 322 323 325 326 326 326 327 326 326 325 322 319 315 314 314 311 309 304 300 299
312 314 314 312 312 313 313 312 311 311 310 310 305 305 304 303 301 300 299 299 298 298 299 300 303 305 309 313 314 316 319 320 322 323 322 323 323 323 323 320 317 314 313 312 311 307 302 299 298
313 314 313 312 313 314 312 312 311 311 312 309 306 305 304 302 301 300 298 298 298 297 297 298 299 302 305 307 310 312 314 313 315 319 319 319 319 320 320 320 316 312 311 310 309 306 301 299 298
314 314 313 313 312 311 313 312 313 312 307 307 305 304 303 302 300 299 298 297 296 297 297 297 297 299 301 303 306 307 309 308 307 308 310 314 315 315 317 317 316 310 308 308 308 305 302 298 298
315 312 313 313 312 313 313 314 313 312 308 307 304 302 301 300 299 298 297 296 295 294 296 296 296 296 297 299 300 300 298 299 300 302 303 305 307 311 312 312 313 312 307 305 306 305 301 298 298
313 310 311 312 311 313 313 314 313 310 310 307 304 302 300 299 298 297 296 296 295 294 293 294 295 295 295 296 296 296 296 297 298 298 299 300 301 304 305 306 308 308 308 305 304 302 300 298 298
309 310 310 310 311 314 314 315 314 310 310 307 304 302 300 298 297 297 296 295 294 293 292 292 292 293 293 293 293 294 294 294 294 295 295 296 297 298 301 303 303 302 305 305 304 302 300 299 298
310 311 316 315 313 316 314 314 314 310 308 307 303 300 298 297 296 295 294 294 293 292 291 290 290 290 290 289 290 290 291 291 290 291 292 293 293 294 294 295 297 299 299 301 302 301 299 298 298
311 315 316 318 315 312 313 315 314 305 303 301 300 298 297 296 296 295 294 294 293 292 291 289 288 288 288 288 287 286 286 286 285 286 286 286 287 290 292 293 293 294 295 297 298 299 299 299 298
313 314 313 315 306 312 314 313 308 304 302 300 299 298 297 296 294 295 294 293 293 291 290 289 287 287 287 287 287 286 286 285 285 285 285 285 285 285 285 287 290 292 293 293 295 296 297 297 297
314 313 316 314 313 314 314 313 312 307 303 300 299 297 296 295 294 292 292 291 291 290 290 289 288 287 286 286 286 286 285 285 285 284 284 284 284 284 284 285 285 285 288 292 292 292 293 294 295
311 311 312 314 313 314 310 310 308 307 302 300 298 296 295 293 292 292 290 290 290 289 288 288 287 287 286 286 285 285 285 285 284 284 284 284 284 284 284 284 284 284 285 285 287 291 291 291 292
310 311 312 313 312 309 313 313 305 302 301 299 298 297 294 293 290 294 291 290 290 289 288 288 287 287 286 286 285 285 285 284 284 284 284 284 284 284 283 283 284 284 284 284 284 284 286 290 291
Wind_Speed
6 6 10 4 5 5 3 3 4 6 3 1 0 2 3 2 3 3 7 14 7 20 22 29 27 25 23 21 19 16 15 14 13 12 10 9 8 8 8 10 10 8 8 6 4 3 2 4 5
6 7 1 2 4 4 4 3 4 4 4 1 1 0 1 2 3 5 7 12 10 21 21 28 28 26 23 21 18 17 16 14 12 11 11 11 9 8 9 10 9 9 6 4 2 1 2 2 3
6 5 3 3 3 3 3 2 2 3 3 2 2 1 1 2 4 10 6 10 13 19 18 25 27 26 24 23 20 18 17 16 15 14 13 12 11 11 11 12 10 8 6 5 3 3 3 2 2
5 5 4 4 2 0 3 2 3 2 3 2 2 4 4 2 4 6 8 10 17 16 17 20 26 24 23 23 23 21 20 18 16 14 13 13 12 9 9 10 9 8 7 5 4 4 4 4 3
2 3 3 2 4 2 4 3 2 1 1 4 4 3 4 3 9 8 8 10 16 17 16 16 25 25 24 24 22 20 20 20 18 16 15 15 14 13 10 10 9 8 5 6 6 6 5 4 2
4 3 4 1 4 1 2 4 1 3 2 1 1 1 2 6 6 8 7 9 14 17 18 17 19 25 25 23 23 21 20 20 19 18 17 15 19 13 11 10 10 9 8 8 8 6 5 4 5
2 3 3 3 4 3 2 1 3 1 6 2 1 1 2 3 6 8 7 7 11 16 18 20 21 23 24 24 23 24 22 21 19 19 18 19 19 15 12 10 10 10 10 10 9 7 6 7 7
3 3 3 3 2 2 4 2 4 2 5 1 2 2 3 5 11 9 7 9 12 15 20 20 20 22 25 26 25 24 23 22 21 20 20 22 19 17 14 11 11 11 11 10 10 8 8 7 7
3 4 2 3 5 2 4 5 4 4 3 2 4 4 6 5 11 8 8 10 13 16 19 22 22 23 24 30 28 26 26 25 23 22 24 24 23 20 18 14 14 13 12 12 11 10 9 8 7
4 3 5 2 0 2 3 2 3 5 8 7 7 6 3 9 9 10 11 14 15 18 21 23 23 24 22 27 33 31 30 29 26 26 26 26 24 22 20 16 15 16 15 14 12 11 11 9 9
4 5 2 6 4 1 3 7 4 5 5 9 9 7 10 7 9 15 16 19 20 20 21 25 26 25 24 25 28 30 30 29 28 26 28 27 25 23 21 19 19 19 18 18 15 15 12 12 10
2 7 4 5 5 4 3 3 7 5 12 9 11 9 6 10 11 11 16 18 19 21 22 25 26 25 27 26 26 27 28 30 31 30 29 29 28 25 23 22 21 21 22 21 19 16 13 11 9
4 3 4 6 9 7 5 7 5 11 16 12 13 11 9 7 10 16 18 18 17 16 19 20 26 28 27 29 29 28 29 29 31 33 31 31 30 29 26 25 23 22 23 23 21 18 17 15 14
2 2 5 7 11 6 7 6 2 10 6 9 8 8 8 9 16 22 30 28 25 18 13 16 19 28 28 29 30 30 27 26 28 30 32 34 34 31 30 29 27 25 24 24 23 22 20 18 17
2 4 8 10 5 7 6 4 7 12 8 10 6 7 8 13 23 20 20 24 24 22 24 8 11 18 29 28 27 29 28 25 24 26 27 28 35 34 34 32 30 27 26 25 24 23 21 20 18
4 1 3 6 4 2 3 6 8 11 7 14 9 7 12 13 19 21 24 25 24 22 21 18 9 8 20 26 25 25 26 24 25 23 24 25 28 31 33 33 30 26 25 26 28 27 24 22 21
2 3 5 7 1 3 3 6 10 10 5 14 9 10 11 12 19 24 28 31 29 25 23 21 17 10 2 16 18 18 19 22 19 22 21 23 24 28 29 31 28 26 27 29 29 28 27 26 23
5 4 4 4 4 2 3 9 8 11 9 7 9 9 11 13 14 21 28 33 33 30 27 25 24 18 14 6 2 5 6 13 17 16 17 21 23 25 27 27 26 28 29 30 30 29 27 26 23
3 3 4 5 9 3 7 5 9 9 9 6 9 9 11 12 14 23 28 32 33 35 33 30 28 25 18 15 10 6 5 3 3 9 14 16 18 21 25 26 27 29 32 33 32 30 28 25 22
6 4 6 5 6 1 8 8 11 11 5 7 13 9 9 8 12 19 24 29 33 32 33 32 30 27 25 21 17 11 9 11 8 2 7 4 9 16 20 27 27 29 31 32 33 33 30 28 28
3 4 5 7 5 4 3 7 7 2 11 13 11 11 10 11 11 12 20 24 29 33 33 33 31 28 26 22 16 15 10 11 14 12 7 7 7 7 16 22 26 26 29 33 34 35 34 31 33
3 4 6 4 2 3 3 5 6 1 8 8 7 8 8 10 11 12 16 22 27 29 29 32 34 34 30 24 21 22 23 18 18 15 10 8 7 9 13 13 21 24 25 30 34 35 36 31 31
8 3 2 3 3 2 5 1 7 9 4 6 8 9 8 8 9 10 15 20 23 24 27 28 30 31 32 32 28 25 23 19 17 17 15 14 11 7 11 14 15 19 23 25 29 33 35 38 33
4 2 3 3 3 1 8 6 5 5 7 6 7 8 9 8 7 12 18 19 21 21 23 25 26 28 28 29 29 29 28 25 24 22 21 19 16 14 9 10 14 15 19 24 26 29 33 38 41
3 4 2 3 1 6 3 2 8 3 5 10 13 10 8 8 7 7 11 16 19 22 23 24 25 27 27 28 27 26 26 26 26 26 24 24 21 20 18 15 13 14 14 18 23 23 30 33 39
6 5 4 5 3 5 6 5 4 8 16 16 11 8 8 7 6 7 11 13 14 15 16 18 21 23 23 23 25 25 24 24 24 24 23 23 23 22 21 18 15 16 14 14 18 23 25 29 33
4 4 3 2 1 2 4 4 5 8 11 11 8 7 7 6 6 6 9 10 10 11 12 15 18 19 20 20 20 21 21 21 21 21 22 22 23 23 23 23 21 18 16 16 16 19 23 26 30
3 5 2 2 1 5 5 4 4 5 9 7 6 7 6 5 5 5 9 10 9 9 9 9 12 15 15 15 15 16 16 16 18 20 22 23 23 23 23 22 23 24 22 19 17 19 22 25 28
1 1 2 4 4 4 2 5 5 7 10 10 9 8 9 8 6 5 7 10 8 7 7 6 6 10 12 12 14 16 16 18 18 21 24 25 24 24 25 25 25 25 24 24 22 20 20 23 28
6 6 6 3 5 3 3 9 3 7 10 9 10 10 8 7 7 6 10 9 8 7 6 6 5 5 7 8 9 14 16 21 22 25 25 27 26 26 27 26 26 27 27 26 24 24 24 24 23
Wind_Direction
332 332 325 351 54 62 326 52 120 37 34 147 37 90 208 218 216 214 144 175 184 182 180 187 187 183 180 181 182 181 181 178 174 173 168 161 156 152 145 142 154 155 146 135 115 84 67 82 98
338 346 20 66 82 69 301 145 102 163 179 12 310 14 2 3 119 126 142 178 192 184 185 190 191 191 188 188 189 186 186 185 181 181 167 164 166 152 150 156 165 164 164 161 149 140 133 125 108
340 325 73 95 117 131 181 71 87 43 121 96 7 345 222 153 128 149 154 167 181 183 191 195 194 195 191 189 190 190 188 187 186 181 178 180 179 166 164 170 178 182 182 181 180 184 177 186 181
340 15 18 84 254 63 93 74 72 54 45 82 132 315 315 26 137 147 156 164 168 189 191 197 196 197 197 195 194 193 191 188 191 196 194 188 187 177 183 178 186 195 192 188 206 209 221 232 221
295 69 48 1 286 141 85 102 72 304 207 190 166 289 292 40 133 142 160 165 173 187 194 198 201 199 202 204 203 203 200 192 192 201 207 195 184 189 178 183 191 192 191 189 188 209 224 231 198
12 91 51 6 305 158 69 112 44 340 347 274 62 43 308 149 166 153 155 167 179 188 198 203 202 206 203 205 207 207 207 205 202 207 211 205 200 212 184 186 190 194 192 182 186 209 218 196 147
97 77 220 283 287 353 151 161 80 27 338 299 200 323 295 218 166 164 168 180 185 198 207 209 209 208 213 209 215 214 213 215 214 211 217 209 212 219 212 201 191 193 191 185 196 210 204 169 150
93 91 303 278 242 282 187 151 138 44 276 321 39 272 257 226 184 181 178 188 203 206 216 217 214 216 214 207 212 218 220 222 222 217 218 209 218 220 229 227 194 196 195 189 199 200 187 164 150
45 60 264 276 11 346 344 32 354 335 300 329 224 216 262 224 184 193 193 202 205 215 217 219 222 219 223 214 213 214 218 221 222 223 218 212 213 218 229 245 204 203 199 195 197 190 185 168 158
97 118 237 140 3 317 297 100 304 351 318 288 296 281 315 188 204 215 220 226 216 217 222 223 227 229 226 219 218 219 222 222 223 224 218 218 218 221 232 241 217 211 205 204 195 193 188 175 171
183 193 225 303 354 334 315 320 333 347 291 255 266 271 301 189 227 236 241 242 238 239 229 228 230 230 228 221 221 223 223 220 216 221 219 220 221 228 232 236 220 212 210 210 203 203 192 187 186
206 230 247 283 318 310 275 293 309 235 254 258 270 262 279 296 292 258 236 245 248 243 245 234 231 227 226 228 226 226 224 221 215 215 220 220 223 228 234 236 221 215 213 213 213 211 199 198 201
224 260 300 309 298 275 295 274 246 276 276 276 282 296 290 285 292 325 311 276 269 246 239 239 230 227 227 223 224 226 229 228 224 220 217 221 225 228 228 231 226 221 218 218 217 212 208 207 207
356 316 276 269 262 261 238 263 67 278 301 311 335 335 323 2 41 38 32 26 33 15 297 249 233 231 225 222 223 225 230 230 230 231 230 227 229 231 227 223 223 226 225 222 222 217 213 212 212
338 330 314 269 265 222 158 319 233 255 303 295 301 335 9 54 45 39 34 33 25 24 34 9 264 238 227 224 225 225 228 231 230 233 237 238 233 232 228 227 224 226 224 222 222 219 217 216 214
293 50 326 284 171 306 77 259 268 282 332 301 325 322 79 52 46 33 34 33 26 23 25 32 15 259 227 225 227 226 227 229 233 236 236 242 240 233 227 223 227 233 228 222 218 217 215 215 214
305 231 205 306 300 129 157 253 267 291 314 286 342 77 74 58 43 33 32 33 33 33 31 35 39 44 262 229 227 229 230 232 231 234 233 236 241 229 227 222 230 230 223 220 220 221 223 213 209
219 219 285 267 276 139 225 251 278 284 294 289 77 72 73 65 47 40 38 40 36 37 41 48 50 57 54 63 156 208 216 227 229 234 235 236 240 233 230 228 228 226 220 220 222 228 221 221 211
287 256 258 268 277 327 279 265 266 271 283 27 96 92 81 68 61 48 43 44 41 42 40 40 45 48 57 53 35 14 23 32 239 234 246 250 248 239 236 230 224 224 224 225 227 224 221 217 207
224 243 279 285 278 334 280 288 288 270 300 131 127 107 100 88 63 49 44 41 41 39 42 44 43 46 52 57 54 60 61 60 47 285 264 256 247 238 237 236 232 226 225 223 223 224 218 219 203
238 219 241 232 315 310 338 301 263 325 85 87 85 97 85 79 72 56 45 42 45 45 44 47 47 46 45 52 56 53 59 45 29 18 356 284 298 283 234 237 241 234 229 227 228 228 224 213 208
255 219 219 231 80 227 46 280 281 146 91 80 79 76 82 81 72 66 53 46 44 46 50 52 50 50 47 46 54 57 49 38 28 31 25 350 317 293 272 250 243 250 245 235 235 235 230 221 214
221 106 192 228 215 75 268 254 259 108 146 137 123 108 92 84 87 79 67 58 55 52 49 51 51 49 48 50 49 50 50 43 39 30 19 15 12 340 310 295 271 254 259 254 248 240 234 229 226
143 64 330 59 109 330 233 180 265 177 175 150 123 104 98 89 78 72 68 61 56 51 50 51 54 51 48 48 46 49 49 42 36 30 23 9 5 13 354 310 295 287 262 258 259 252 246 241 235
82 86 318 348 16 217 171 187 238 40 127 136 122 110 99 88 74 67 62 51 47 45 42 43 49 50 48 47 47 45 45 41 40 36 32 24 13 2 349 337 326 307 298 277 268 260 251 247 245
174 168 160 237 235 263 346 263 298 71 84 94 95 102 93 90 94 88 78 70 58 51 50 50 49 50 49 50 48 45 46 46 42 37 33 30 23 17 9 356 333 311 313 295 286 278 271 263 255
187 173 180 126 71 54 227 285 98 80 90 99 112 108 112 106 98 97 88 84 78 75 63 55 48 47 45 42 44 43 39 31 29 30 29 24 20 16 12 9 2 354 336 318 304 290 285 277 270
142 157 92 29 228 243 274 262 211 174 143 136 140 136 135 127 129 127 119 113 95 87 80 58 57 51 45 44 36 28 24 21 16 11 10 9 6 3 1 1 1 358 357 348 326 310 301 291 281
90 223 212 171 177 202 220 256 181 160 162 165 176 171 170 171 165 155 131 121 111 98 82 84 55 49 44 36 30 15 6 7 359 354 351 350 348 348 350 349 348 348 349 347 338 325 313 305 298
185 212 184 184 261 251 225 257 140 155 171 170 186 188 189 170 160 150 142 146 147 139 131 97 79 52 36 20 15 16 359 354 348 344 342 339 337 337 338 338 334 334 334 331 329 325 320 310 299